Location: Berrizáun
(43.2297°N, 1.6760°W)
Time: 05:54:59
(UTC+00:00)

Daily predictions for brighter satellites

Satellite Brightness Start Highest point End
(mag) Time Altitude Azimuth Time Altitude Azimuth Time Altitude Azimuth
Cosmos-2242 4.3 00:00:44 10° NNE 00:04:25 31° ENE 00:04:25 31° ENE
Gbstr 26 Del rocket 3.8 00:01:42 10° WNW 00:07:28 87° SSW 00:09:37 46° SE
Cosmos 2227 Rocket 2.4 00:02:37 10° NNW 00:08:17 65° ENE 00:09:27 52° ESE
S3M 4.3 00:08:28 10° NNW 00:14:35 54° W 00:15:45 47° SW
GEOS 3 Rocket 4.1 00:10:32 10° NNE 00:15:41 56° NW 00:17:31 37° WSW
Cosmos 1441 Rocket 4.4 00:20:22 37° N 00:20:22 37° N 00:22:33 10° N
Cosmos 1606 Rocket 4.5 00:17:31 10° NNW 00:21:06 39° WNW 00:21:06 39° WNW
Meteor 2-2 Rocket 4.4 00:21:23 10° N 00:26:59 64° ENE 00:28:00 54° SE
Cosmos 1655 Rocket 4.1 00:25:42 52° SW 00:27:10 67° W 00:33:33 10° N
Cosmos 1125 Rocket 3.3 00:30:24 78° SSE 00:30:41 83° ESE 00:35:58 10° NNE
Cosmos 1315 Rocket 3.5 00:27:23 10° N 00:30:17 50° NNW 00:30:17 50° NNW
Cosmos 1932 4.4 00:31:36 54° SW 00:33:06 82° WNW 00:39:31 10° NNE
Meteor 1-26 Rocket 4.2 00:30:32 10° N 00:35:55 67° ENE 00:36:45 58° SE
Geosat 3.8 00:31:11 10° NNE 00:36:13 85° WNW 00:36:36 76° SW
ALOS 2 4.5 00:38:29 20° W 00:38:29 20° W 00:41:07 10° NW
CENTAUR R/B 4.3 00:37:30 12° ESE 00:38:09 12° E 00:40:26 10° ENE
H-2A R/B 3.7 00:41:17 30° ENE 00:41:25 30° ENE 00:44:52 10° N
Cosmos 1048 Rocket 4.3 00:37:10 10° NNW 00:42:19 51° WSW 00:42:19 51° WSW
Cosmos 2058 Rocket 3.3 00:40:02 10° NNW 00:44:04 63° WNW 00:44:04 63° WNW
BlueWalker 3 4.5 00:42:22 10° WNW 00:42:45 13° WNW 00:42:45 13° WNW
Cosmos 614 Rocket 4.0 00:43:07 10° NNW 00:48:10 68° ENE 00:48:55 58° ESE
Nadezhda 2 Rocket 4.5 00:47:03 57° S 00:48:31 88° E 00:54:57 10° N
BREEZE-M DEB (TANK) 4.3 00:48:59 10° WNW 00:50:49 22° NW 00:50:49 22° NW
Cosmos 2263 Rocket 2.1 00:51:47 10° NNW 00:57:27 82° ENE 00:58:41 56° SE
Cosmos 192 4.1 01:00:29 81° S 01:00:44 87° ESE 01:05:41 10° NNE
USA 32 4.1 01:00:07 57° SE 01:00:52 65° E 01:06:03 10° N
Cosmos 2369 3.6 01:01:32 60° SSE 01:02:20 69° ESE 01:07:57 10° NNE
CZ-2C R/B 2.6 00:58:59 10° NNE 01:03:45 82° ESE 01:04:01 78° SSE
Cosmos 2082 4.1 00:58:25 10° NNW 01:04:02 59° ENE 01:06:25 33° SE
Cosmos 1602 Rocket 3.7 01:07:34 64° E 01:07:34 64° E 01:11:49 10° NNE
Cosmos 2298 Rocket 4.0 01:07:44 63° SSE 01:08:23 70° ESE 01:13:40 10° NNE
Cosmos 1758 Rocket 3.5 01:09:37 81° WNW 01:09:37 81° WNW 01:13:59 10° N
Cosmos 1626 Rocket 3.7 01:11:27 61° WNW 01:11:27 61° WNW 01:15:41 10° N
SL-16 R/B 3.3 01:13:38 29° SE 01:14:53 31° ESE 01:19:49 10° NE
Cosmos 2333 Rocket 3.9 01:15:34 18° SE 01:17:20 20° E 01:21:24 10° NE
Cosmos 2297 Rocket 4.1 01:15:48 10° WNW 01:18:18 15° W 01:18:18 15° W
Cosmos 2219 3.1 01:13:49 10° NNW 01:19:31 82° WSW 01:20:48 55° S
Spot 2 4.3 01:20:19 52° E 01:20:41 55° ENE 01:24:36 10° N
USA 290 3.9 01:17:44 10° NNW 01:19:34 30° NNW 01:19:34 30° NNW
BREEZE M DEB (TANK) 4.3 01:21:29 23° NNW 01:22:15 27° NNE 01:25:23 10° ENE
Cosmos 44 Rocket 4.3 01:25:06 31° ESE 01:25:17 31° ESE 01:29:26 10° NE
ATLAS 2AS CENTAUR R/B 2.5 01:18:54 10° NW 01:25:41 85° SW 01:29:12 31° SSE
Cosmos 1980 Rocket 2.8 01:25:56 37° WSW 01:27:33 47° WNW 01:33:00 10° NNE
Cosmos 1743 4.1 01:28:39 26° E 01:28:39 26° E 01:31:15 10° NNE
USA 215 3.6 01:30:25 40° SW 01:30:34 40° SW 01:36:41 10° WNW
Cosmos 921 Rocket 2.9 01:26:22 10° NNW 01:30:47 80° ENE 01:31:10 72° SE
Cosmos 2151 2.7 01:35:22 84° SE 01:35:28 86° E 01:39:36 10° N
NPP 4.2 01:30:34 10° NNE 01:35:47 49° E 01:37:32 36° SSE
Lacrosse 5 rocket 2.2 01:34:43 10° NW 01:37:12 36° WNW 01:37:12 36° WNW
CZ-2C R/B 3.0 01:37:53 46° SW 01:38:42 50° W 01:44:09 10° NNW
Resurs 1-4 Rocket 3.5 01:41:09 10° NE 01:45:48 30° E 01:48:25 20° SE
Cosmos 1076 Rocket 4.3 01:46:03 37° SE 01:47:01 43° E 01:51:03 10° NNE
Cosmos 2227 Rocket 3.8 01:47:55 10° WNW 01:51:13 18° W 01:51:13 18° W
Cosmos 1844 Rocket 3.5 01:47:52 10° NNW 01:53:20 48° ENE 01:58:42 10° SE
Cosmos 1238 Rocket 3.3 01:50:39 10° NNW 01:55:47 70° W 01:56:48 53° SSW
CZ-2D R/B 3.2 01:54:38 10° NNE 01:59:24 35° E 02:02:07 21° SSE
Cosmos 2237 4.2 01:58:13 43° SW 02:00:08 75° WNW 02:05:51 10° NNE
IDEFIX/ARIANE 42P 2.4 01:55:19 10° NNE 02:00:30 86° WNW 02:02:09 45° SSW
Meteor 1-19 Rocket 4.1 01:56:22 10° N 02:01:56 89° W 02:04:33 34° S
H-2A R/B 2.6 02:00:02 10° NNE 02:04:10 50° E 02:05:29 36° SSE
Cosmos 2221 3.0 02:00:49 10° NNW 02:04:50 41° W 02:04:55 41° W
Cosmos 1953 Rocket 3.5 02:04:16 50° SSE 02:05:20 76° E 02:09:39 10° NNE
Cosmos 2360 Rocket 3.1 02:03:04 26° SSE 02:05:34 40° ESE 02:10:48 10° NE
SeaSat 1 3.4 02:02:25 10° SE 02:07:05 47° ENE 02:11:47 10° NNW
Cosmos 1346 Rocket 2.5 02:09:59 65° WSW 02:10:11 68° W 02:13:53 10° N
Cosmos 2278 3.6 02:08:06 40° SSW 02:10:15 86° ESE 02:15:56 10° NNE
Cosmos 1733 3.0 02:14:21 54° E 02:14:21 54° E 02:17:16 10° NNE
H-2A R/B 4.1 02:16:38 18° WNW 02:16:38 18° WNW 02:18:39 10° NW
Cosmos 1269 Rocket 3.9 02:14:49 10° NNW 02:20:08 86° WSW 02:23:36 22° SSE
Molniya-1 3.6 02:19:21 46° WSW 02:20:17 73° NW 02:26:59 10° NE
Cosmos 2219 Rocket 3.6 02:16:52 16° SSE 02:20:21 30° ESE 02:25:09 10° NE
Cosmos 2074 Rocket 4.3 02:19:36 21° SSE 02:23:46 62° E 02:29:55 10° NNE
Cosmos 1825 Rocket 4.2 02:22:59 35° WSW 02:23:52 39° WNW 02:27:58 10° N
H-2A R/B 4.4 02:24:08 10° NE 02:26:56 15° E 02:29:44 10° SE
CENTAUR R/B 2.3 02:24:36 34° SSW 02:27:11 86° SE 02:33:59 10° NE
Cosmos 2322 Rocket 2.3 02:24:50 31° S 02:27:36 72° ESE 02:33:13 10° NNE
MOZ.5/SAFIR/RUBIN 5/SL-8 3.9 02:30:28 36° SSW 02:32:03 54° W 02:36:38 10° NNW
ADEOS II 2.7 02:27:15 10° NNE 02:32:21 50° E 02:35:56 19° S
OAO 3 Rocket 4.0 02:33:04 30° S 02:33:04 30° S 02:37:10 10° ESE
ATLAS 5 CENTAUR R/B 2.0 02:29:13 10° NW 02:33:51 80° NE 02:39:37 10° SE
ALOS 2.9 02:30:22 10° NNE 02:34:49 49° E 02:37:41 20° SSE
Meteor 1-25 Rocket 4.4 02:36:57 30° SW 02:39:39 56° WNW 02:45:16 10° N
NOSS 3-2 (A) 3.6 02:37:39 25° S 02:40:16 49° ESE 02:45:45 10° NE
Cosmos 2263 Rocket 4.0 02:37:46 10° WNW 02:40:18 14° W 02:40:18 14° W
Envisat 3.5 02:41:07 10° NNE 02:46:06 56° E 02:49:58 17° S
Meteor 1-27 Rocket 4.0 02:42:08 10° NNW 02:47:55 55° W 02:51:36 22° SSW
Milstar 3 Cent rocket 4.0 02:49:25 17° S 02:49:59 17° S 02:53:32 10° SE
USA 276 2.9 02:51:56 26° WNW 02:52:55 36° NNW 02:55:21 10° NE
SL-16 R/B 3.5 02:48:41 10° SE 02:54:40 50° ENE 03:00:41 10° N
Cosmos 2181 Rocket 4.1 02:48:58 10° NNW 02:54:56 55° W 02:59:11 19° SSW
NOAA 11 4.2 02:50:45 10° NNE 02:56:13 83° ESE 03:00:17 18° SSW
FENGYUN 3A 4.2 02:51:56 10° N 02:57:05 46° WNW 03:00:13 22° SW
SL-16 R/B 3.0 02:55:28 21° WSW 02:58:49 40° WNW 03:04:09 10° NNE
Uosat 12 SS-18 rocket 4.1 02:57:37 27° SW 02:59:54 71° NW 03:04:37 10° NNE
Cosmos 2333 Rocket 2.4 02:57:35 23° SW 03:01:06 60° WNW 03:06:44 10° NNE
Meteor 2-10 4.5 02:56:25 12° S 03:01:08 58° E 03:06:08 10° NNE
Cosmos 1805 4.4 02:58:22 11° SSE 03:01:20 34° E 03:04:31 10° NNE
Cosmos 1842 Rocket 4.0 02:57:40 10° NNW 03:01:49 42° W 03:03:56 24° SSW
Cosmos 1743 4.3 03:01:59 15° W 03:02:29 16° WNW 03:04:36 10° NNW
CZ-3 R/B 4.5 02:14:10 10° WSW 03:02:41 52° SSW 03:15:32 10° ESE
Cosmos 1707 2.8 03:01:27 10° NNW 03:04:34 41° W 03:05:36 30° SW
Cosmos 44 Rocket 4.3 03:03:42 18° WSW 03:06:36 35° NW 03:10:58 10° NNE
Meteor 2-4 Rocket 3.7 03:05:39 10° NNW 03:10:53 56° W 03:15:34 13° S
ATLAS 2AS CENTAUR R/B 4.1 03:11:52 10° WNW 03:15:32 15° WSW 03:16:31 15° WSW
Cosmos 1066 Rocket 4.0 03:13:14 10° NNW 03:18:37 77° W 03:23:56 10° S
CZ-2C R/B 4.2 03:18:16 10° NE 03:22:44 30° E 03:27:11 10° SSE
Cosmos 1140 Rocket 4.3 03:19:37 10° NW 03:24:06 31° W 03:27:52 13° SSW
Cosmos 1842 4.0 03:21:18 10° NNW 03:24:12 26° W 03:25:37 20° SW
Resurs 1-4 Rocket 2.9 03:20:44 10° N 03:25:35 37° WNW 03:29:28 15° SW
COSMOS 2428 3.9 03:20:29 10° S 03:25:42 39° ESE 03:30:58 10° NE
Nadezhda 3 Rocket 4.0 03:20:11 10° NNW 03:26:17 62° W 03:32:19 10° S
AQUA 3.8 03:21:51 10° NNE 03:26:34 87° WNW 03:31:04 11° SSW
Cosmos 2322 4.4 03:26:20 10° S 03:31:47 51° ESE 03:37:18 10° NE
SJ 16-02 3.4 03:28:34 10° N 03:32:23 30° ENE 03:36:11 10° SE
Cosmos 2341 Rocket 4.4 03:29:10 10° S 03:35:17 67° E 03:41:28 10° NNE
METEOR-M 4.1 03:31:13 10° NNE 03:36:35 87° WNW 03:41:54 10° SSW
Cosmos 1844 Rocket 3.7 03:32:22 10° NW 03:36:51 25° WSW 03:41:18 10° SSW
Cosmos 1536 2.6 03:33:20 10° S 03:37:02 86° E 03:40:47 10° N
Cosmos 1151 Rocket 3.1 03:33:23 10° NNW 03:37:37 57° W 03:41:47 10° S
H-2A R/B 3.9 03:36:31 10° NNW 03:39:11 17° WNW 03:41:53 10° WSW
CZ-2D R/B 3.1 03:34:46 10° N 03:39:17 30° WNW 03:43:22 12° WSW
Cosmos 407 Rocket 3.9 03:34:25 10° NNW 03:39:21 42° WSW 03:44:19 10° S
Cosmos 2366 rocket 4.4 03:33:53 10° S 03:40:02 64° E 03:46:10 10° NNE
ATLAS CENTAUR R/B 1.2 03:37:04 13° SSW 03:40:14 70° ESE 03:44:01 10° NE
SeaSat 1 3.5 03:40:41 10° SSW 03:44:38 24° WSW 03:48:37 10° NW
Cosmos 2327 Rocket 4.5 03:42:07 10° SSW 03:48:09 68° W 03:54:18 10° N
Cosmos 2360 Rocket 3.2 03:44:48 11° WSW 03:49:37 32° NW 03:54:39 10° N
ARIANE 6 FM1 Upper Stage 3.0 03:46:47 12° WSW 03:50:20 50° NW 03:54:14 10° NNE
Helios 1A Rocket 4.2 03:50:09 10° SE 03:53:25 37° ENE 03:56:42 10° N
Cosmos 1943 Rocket 4.4 03:48:32 10° N 03:53:32 31° NE 03:58:31 10° ESE
Delta 2 Rocket 4.4 03:50:48 10° WSW 03:54:21 27° S 03:57:56 10° SE
ARGOS 4.2 03:49:35 10° NNE 03:54:48 46° E 03:59:58 10° S
NOSS 2-2 (C) 2.8 03:55:15 10° SW 03:58:34 65° NW 04:01:36 10° NNE
Cosmos 2084 Rocket 4.5 03:55:55 10° S 03:59:54 40° ESE 04:03:53 10° NE
Cosmos 405 Rocket 3.0 03:57:56 10° SW 04:00:57 36° WNW 04:04:00 10° N
Cosmos 2219 Rocket 2.9 03:58:50 10° SW 04:04:05 41° WNW 04:09:23 10° NNE
H-2A R/B 3.3 04:01:39 10° N 04:05:31 73° WNW 04:09:21 10° SSW
H-2A R/B 2.0 04:01:51 10° N 04:06:42 62° WNW 04:11:30 10° SSW
Meteor 1-28 Rocket 3.4 04:04:21 10° S 04:07:31 39° W 04:10:41 10° NNW
Iridium 4 Rocket 3.7 04:04:55 10° S 04:10:40 76° W 04:16:08 10° N
Cosmos 1766 Rocket 3.5 04:06:28 10° S 04:10:45 80° W 04:15:04 10° N
BREEZE M DEB (TANK) 3.6 04:07:03 10° WNW 04:10:55 30° N 04:13:02 10° ENE
ADEOS II 3.5 04:07:32 10° NNW 04:11:34 23° WNW 04:15:34 10° WSW
